weather.gov     
National Weather Service

Regional Weather Roundup
NWS Homepage
This page is being discontinued on March 12, 2014.
The same data is available at this site. Please update your bookmarks.
Thank you, and we apologize for the inconvenience.
Please send an email to SR-SRH.Webmaster@noaa.gov with any concerns.


Current Version
Previous Version:    01  02  03  04  05  06  07  08  09  10  11  12  13  14  15  16  17  18  19  20  21  22  23  24  25  26  
[Printable]
080
ASUS42 KRAH 230710
RWRRAH
NORTH CAROLINA WEATHER ROUNDUP
NATIONAL WEATHER SERVICE RALEIGH NC
300 AM EDT SAT AUG 23 2014

NOTE: "FAIR" INDICATES FEW OR NO CLOUDS BELOW 12,000 FEET WITH NO
SIGNIFICANT WEATHER AND/OR OBSTRUCTIONS TO VISIBILITY.

NCZ001-053-055-056-065-067-230800-
WESTERN NORTH CAROLINA

CITY           SKY/WX    TMP DP  RH WIND       PRES   REMARKS
ASHEVILLE      PTCLDY    68  66  93 CALM      30.08S
JEFFERSON      MOCLDY    68  62  83 NW7       30.10F
MORGANTON      LGT RAIN  72  70  92 CALM      30.04F
HICKORY        CLOUDY    73  70  90 N6        29.99F
RUTHERFORDTON  PTCLDY    73  71  93 CALM      29.98F
MOUNT AIRY     CLOUDY    74  70  89 CALM      30.00F
BOONE          CLOUDY    65  65  97 W8        30.12F
$$

NCZ021-022-025-041-071-084-088-230800-
CENTRAL NORTH CAROLINA

CITY           SKY/WX    TMP DP  RH WIND       PRES   REMARKS
CHARLOTTE      CLOUDY    74  71  91 N3        29.96F
GREENSBORO     CLOUDY    77  73  87 CALM      29.96F
WINSTON-SALEM  CLOUDY    76  68  76 NW3       29.98F
RALEIGH-DURHAM MOCLDY    76  72  87 CALM      29.95F
FORT BRAGG     PTCLDY    78  71  79 W2        29.94S
FAYETTEVILLE   PTCLDY    77  70  79 NW10      29.94R
BURLINGTON     CLOUDY    76  72  87 N3        29.96F
LAURINBURG     CLOUDY    77  72  84 N6        29.95R
$$

NCZ011-015-027-028-043-044-047-080-103-230800-
NORTHEASTERN NORTH CAROLINA

CITY           SKY/WX    TMP DP  RH WIND       PRES   REMARKS
ROCKY MT-WILSO MOCLDY    74  72  93 CALM      29.94F
GREENVILLE     MOCLDY    73  73 100 CALM      29.95F
WASHINGTON     MOCLDY    74  72  92 CALM      29.94S
ELIZABETH CITY CLEAR     75  72  90 NE5       29.94F
MANTEO         PTCLDY    75  72  88 N5        29.94R
CAPE HATTERAS  MOCLDY    76  72  87 NE5       29.93S
$$

NCZ078-087-090-091-093-098-101-230800-
SOUTHEASTERN NORTH CAROLINA

CITY           SKY/WX    TMP DP  RH WIND       PRES   REMARKS
LUMBERTON      PTCLDY    76  73  91 CALM      29.91F
GOLDSBORO      MOCLDY    75  74  98 CALM      29.92F
KINSTON        PTCLDY    74  73  93 CALM      29.94S
KENANSVILLE    MOCLDY    71  70  96 CALM      29.94F
NEW BERN       MOCLDY    78  74  87 CALM      29.94S
CHERRY POINT   MOCLDY    77  74  90 W5        29.94S
BEAUFORT       PTCLDY    79  74  84 N3        29.92S
JACKSONVILLE   MOCLDY    75  72  90 W5        29.93S
WILMINGTON     PTCLDY    74  73  97 CALM      29.92F
$$





U.S. Dept. of Commerce
NOAA National Weather Service
1325 East West Highway
Silver Spring, MD 20910
E-mail: w-nws.webmaster@noaa.gov
Page last modified: May 16, 2007
NATIONAL WEATHER SERVICE: for Safety, for Work, for Fun - FOR LIFE